Regional Weather Roundup
Issued by NWS

Home | Current Version | Previous Version | Text Only | Print | Product List | Glossary Off
Versions: 1 2 3 4 5 6 7 8 9 10 11 12 13 14 15 16 17 18 19 20 21 22 23 24 25 26 27 28 29 30 31 32 33 34 35 36 37 38 39 40 41 42 43 44 45 46 47 48 49 50

417
ASUS43 KDMX 221106
RWRIA

WEATHER ROUNDUP FOR IOWA
NATIONAL WEATHER SERVICE DES MOINES IA
500 AM CST THU FEB 22 2018

NOTE: "FAIR" INDICATES FEW OR NO CLOUDS BELOW 12,000 FEET WITH NO
SIGNIFICANT WEATHER AND/OR OBSTRUCTIONS TO VISIBILITY.

* - THESE STATIONS ARE NOT NWS STATIONS...THUS NOT UNDER NWS
QUALITY CONTROL.  THEY ALSO DO NOT REPORT WEATHER SUCH
AS PRECIPITATION OR FOG.

IAZ001>003-012>014-020>022-031>034-043>046-221200-
   NORTHWEST IOWA

CITY           SKY/WX    TMP DP  RH WIND       PRES   REMARKS
CARROLL *      CLOUDY    23  19  86 E6        30.48R WCI  16
CHEROKEE *     FLURRIES  20  19  94 CALM      30.48S
DENISON *      CLOUDY    21  18  86 NE8       30.48R WCI  12
LE MARS *      LGT SNOW  19  18  93 E6        30.48S WCI  11
ORANGE CITY *  LGT SNOW  19  18  93 E3        30.45F
SHELDON *      LGT SNOW  18  16  93 E6        30.46S WCI   9
SIOUX CITY     CLOUDY    19  17  92 SE7       30.48S WCI  10
SPENCER        LGT SNOW  19  15  84 NE6       30.48F FOG     WCI  11
STORM LAKE *   CLOUDY    19  18  93 E9        30.46S WCI   9
$$

IAZ055>058-069>071-079>083-090>094-221200-
   SOUTHWEST IOWA

CITY           SKY/WX    TMP DP  RH WIND       PRES   REMARKS
ATLANTIC *     LGT SNOW  23  21  93 E8        30.46S VSB 1   WCI  14
AUDUBON *      LGT SNOW  23  18  80 NE8       30.45F WCI  14
CLARINDA *     LGT SNOW  25  25 100 NE7       30.46S WCI  17
COUNCIL BLFS * LGT SNOW  21  21 100 NE9       30.44F WCI  11
CRESTON *      LGT SNOW  23  19  86 NE10      30.45S WCI  12
HARLAN  *      LGT SNOW  21  21 100 E7        30.49F WCI  13
LAMONI         FLURRIES  25  21  85 NE7       30.43R WCI  17
RED OAK *      LGT SNOW  23  21  93 NE9       30.45S WCI  13
SHENANDOAH *   LGT SNOW  25  23  93 NE10      30.44F WCI  15
$$

IAZ047>049-059>061-072>074-084-221200-
   CENTRAL IOWA

CITY           SKY/WX    TMP DP  RH WIND       PRES   REMARKS
AMES           CLOUDY    24  16  71 NE13      30.47F WCI  12
ANKENY *       CLOUDY    25  18  74 NE9       30.48F WCI  15
BOONE *        CLOUDY    23  18  80 NE14      30.45F WCI  11
CHARITON *     CLOUDY    25  21  86 E10       30.43S WCI  15
DES MOINES     FLURRIES  25  17  72 NE6       30.48S WCI  18
GRINNELL*      CLOUDY    25  19  78 NE9       30.50S WCI  15
KNOXVILLE *    CLOUDY    25  18  74 E10       30.43F WCI  15
MARSHALLTOWN   CLOUDY    24  17  74 NE13      30.48F WCI  12
NEWTON *       CLOUDY    25  18  74 NE16      30.47F WCI  12
PELLA *        CLOUDY    26  19  75 NE6       30.48F WCI  19
PERRY *        CLOUDY    24  19  78 E7        30.49R WCI  16
$$

IAZ004>006-015-016-023>025-035-036-221200-
   NORTH CENTRAL IOWA

CITY           SKY/WX    TMP DP  RH WIND       PRES   REMARKS
ALGONA *       LGT SNOW  21 N/A N/A E7        30.49S WCI  13
CLARION *      CLOUDY    21  21 100 E17       30.49F WCI   7
ESTHERVILLE    LGT SNOW  16  13  88 NE8       30.49F FOG     WCI   5
FORT DODGE *   CLOUDY    21  18  88 E8        30.50S WCI  11
MASON CITY     LGT SNOW  21  18  88 E9        30.52F FOG     WCI  11
FOREST CITY *  LGT SNOW  23  21  93 E6        30.51S WCI  16
WEBSTER CITY * CLOUDY    23  16  74 E13       30.46F WCI  11
IOWA FALLS *   CLOUDY    24  19  78 NE7       30.51S WCI  16
$$

IAZ007>011-017>019-026>030-037>042-050>054-066-221200-
   NORTHEAST IOWA

CITY           SKY/WX    TMP DP  RH WIND       PRES   REMARKS
CEDAR RAPIDS   CLOUDY    26  14  60 E9        30.52R WCI  17
CHARLES CITY * LGT SNOW  21  21 100 E10       30.54F WCI  10
CLINTON *      CLOUDY    26  20  77 NE12      30.53R WCI  16
DECORAH *      MIX PCPN  21  18  86 E5        30.56R WCI  15
DUBUQUE        CLOUDY    23  14  68 NE14      30.52F WCI  11
MONTICELLO *   CLOUDY    25  14  63 NE6G12    30.54R WCI  18
OELWEIN *      CLOUDY    23  19  86 NE8       30.55R WCI  14
WATERLOO       CLOUDY    23  17  78 E12       30.54F WCI  12
$$

IAZ064-065-067-068-078-221200-
   EAST CENTRAL IOWA

CITY           SKY/WX    TMP DP  RH WIND       PRES   REMARKS
DAVENPORT      CLOUDY    28  18  66 NE15      30.52S WCI  16
IOWA CITY      CLOUDY    28  16  60 NE12      30.54R WCI  18
MT. PLEASANT * CLOUDY    28  21  74 NE7       30.49R WCI  21
MUSCATINE *    CLOUDY    28  19  69 NE9       30.52R WCI  20
QUAD CITIES    CLOUDY    28  20  71 E12       30.50S WCI  18
$$

IAZ062-063-075>077-085>089-095>099-221200-
   SOUTHEAST IOWA

CITY           SKY/WX    TMP DP  RH WIND       PRES   REMARKS
BURLINGTON     CLOUDY    28  21  75 NE12      30.47S WCI  18
FAIRFIELD *    CLOUDY    28  18  64 NE12      30.47F WCI  18
FORT MADISON * MIX PCPN  28  23  80 NE10G16   30.47F WCI  19
KEOKUK *       CLOUDY    28  25  86 NE7G13    30.46S WCI  21
OSKALOOSA *    CLOUDY    26  20  79 E12       30.47F WCI  15
OTTUMWA        CLOUDY    27  18  69 E13       30.46F WCI  16
WASHINGTON *   CLOUDY    27  23  86 NE14      30.49F WCI  15
$$

ABBREVIATIONS USED IN REMARKS
   TC - TEMPERATURES IN CELSIUS
  WCI - WIND CHILL INDEX
   HX - HEAT INDEX
  VSB - VISIBILITY
$$





USA.gov is the U.S. government's official web portal to all federal, state and local government web resources and services.